Location: Shandelee
(41.8790°N, 74.8713°W)
Time: 03:28:17
(UTC+00:00)

CZ-4 R/B - Pass Details

Date: 29 October 2020
Orbit: 531 x 599 km, 97.7° (Epoch: 23 November)

Event Time Altitude Azimuth Distance (km) Brightness Sun altitude
Rises 23:45:45 0° 174° (S) 2,698 4.8 -20.8°
Reaches altitude 10° 23:47:54 10° 178° (S) 1,802 3.9 -21.2°
Maximum altitude 23:51:44 61° 259° (W) 615 1.7 -21.9°
Drops below altitude 10° 23:55:34 10° 340° (NNW) 1,794 4.2 -22.6°
Sets 23:57:42 0° 344° (NNW) 2,687 5.1 -23.0°
